[Iaude] MPEC G155: 2011 GF3 [a=0.83,e=0.55,i=16.0,H=22.42]

mpec at cfa.harvard.edu mpec at cfa.harvard.edu
Thu Apr 11 10:14:35 EDT 2024


M.P.E.C. 2024-G155                               Issued 2024 April 11, 14:13 UT

     The Minor Planet Electronic Circulars contain information on unusual
         minor planets, routine data on comets and natural satellites,
         and occasional editorial announcements.  They are published
    on behalf of Division F of the International Astronomical Union by the
          Minor Planet Center, Smithsonian Astrophysical Observatory,
                          Cambridge, MA 02138, U.S.A.
			  
             Prepared using the Tamkin Foundation Computer Network

                              MPC at CFA.HARVARD.EDU
            URL https://www.minorplanetcenter.net/    ISSN 1523-6714

                                    2011 GF3                                    


                           Revision to MPEC 2011-G29                            

Additional Observations:
     K11G03F  C2024 04 09.49772216 20 28.028+12 34 09.43         20.97wXEG155F51
     K11G03F  C2024 04 09.50939616 20 28.417+12 35 27.40         21.23wXEG155F51
     K11G03F  C2024 04 09.52113516 20 28.811+12 36 46.08         20.99wXEG155F51
     K11G03F  C2024 04 09.53290616 20 29.190+12 38 03.61         20.81wXEG155F51
     K11G03F 1C2024 04 10.44772616 21 11.916+14 21 57.02         20.55GVEG155G96
     K11G03F 1C2024 04 10.45290516 21 12.085+14 22 32.92         20.96GVEG155G96
     K11G03F 1C2024 04 10.45809716 21 12.254+14 23 09.53         20.70GVEG155G96
     K11G03F 1C2024 04 10.46326916 21 12.424+14 23 45.60         20.52GVEG155G96
     K11G03F mC2024 04 10.48653216 21 13.169+14 26 28.25         20.80GVEG155V06
     K11G03F mC2024 04 10.48693316 21 13.180+14 26 31.27         21.15GVEG155V06
     K11G03F mC2024 04 10.48733416 21 13.194+14 26 34.04         20.81GVEG155V06
     K11G03F mC2024 04 10.48773716 21 13.216+14 26 36.74         21.05GVEG155V06

Observer details:
F51 Pan-STARRS 1, Haleakala.  Observers J. Herman, T. Lowe, P. Minguez, A.
    Schultz, I. Smith.  Measurers K. Chambers, T. de Boer, J. Fairlamb, H.
    Gao, M. Huber, C.-C. Lin, E. Magnier, Y. Ramanjooloo, R. Wainscoat, R.
    Weryk.  1.8-m Ritchey-Chretien + CCD.
G96 Mt. Lemmon Survey.  Observer A. D. Grauer.  Measurers T. Beuden, V. F.
    Carvajal, D. Fay, J. B. Fazekas, D. C. Fuls, A. R. Gibbs, A. D. Grauer, H.
    Groeller, J. K. Hogan, R. A. Kowalski, S. M. Larson, G. J. Leonard, D.
    Rankin, R. L. Seaman, F. C. Shelly, K. W. Wierzchos.  1.5-m reflector +
    10K CCD.
V06 Catalina Sky Survey-Kuiper.  Observer G. J. Leonard.  Measurers T. Beuden,
    V. F. Carvajal, D. Fay, J. B. Fazekas, D. C. Fuls, A. R. Gibbs, A. D.
    Grauer, H. Groeller, J. K. Hogan, R. A. Kowalski, S. M. Larson, G. J.
    Leonard, D. Rankin, R. L. Seaman, F. C. Shelly, K. W. Wierzchos.  1.55-m
    reflector + 1K CCD.

First and last observations above in comparison with prediction:
Residuals in seconds of arc (or zero decimals in degrees), reference and Delta-T
240409 F51   14+    1+    240410 V06   15+    1+    E2024-ED3   +4.73 days

Orbital elements:
2011 GF3                                                 Earth MOID = 0.1636 AU
Epoch 2024 Mar. 31.0 TT = JDT 2460400.5                 Veres                   
M 233.97914              (2000.0)            P               Q                  
n   1.29860314     Peri.  178.23088     +0.99939296     -0.03015955             
a   0.8320545      Node   183.63742     +0.02762526     +0.99102781             
e   0.5478987      Incl.   15.95457     +0.02122623     +0.13020863             
P   0.76           H   22.42          G   0.15           U   3                  
Residuals in seconds of arc
110402 F51  0.5-  0.4+    110405 291  0.7-  0.5-    240410 G96  0.0   0.2-
110402 F51  0.6-  0.2+    110405 291  0.9+  0.8-    240410 G96  0.0   0.1+
110402 F51  0.4-  0.2+    110411 291  1.0+  1.0+    240410 G96  0.1+  0.0
110403 568  0.5-  0.1+    110411 291  0.2+  0.6-    240410 V06  0.1-  0.1-
110403 568  0.5-  0.2+    240409 F51  0.2-  0.7-    240410 V06  0.1-  0.1+
110403 J95  0.8+  0.3+    240409 F51  0.2-  0.4-    240410 V06  0.1-  0.1+
110403 J95  0.6-  0.7+    240409 F51  0.1-  0.1+    240410 V06  0.0   0.0
110403 J95  0.4+  0.6+    240409 F51  0.2-  0.7-
110405 291  0.8-  0.5-    240410 G96  0.0   0.1+

Ephemeris:
2011 GF3                 a,e,i = 0.83, 0.55, 16                  q = 0.3762
Date    TT    R. A. (2000) Decl.     Delta      r    Elong.  Phase     V
2024 03 12    15 49 27.0 -13 42 35   0.4806  1.2630   113.2    46.3    23.1
...
2024 03 27    16 07 44.5 -04 47 11   0.3358  1.2182   124.1    42.7    22.1
...
2024 04 04    16 15 44.3 +03 52 17   0.2671  1.1849   128.5    41.4    21.5
...
2024 04 10    16 20 50.9 +13 30 30   0.2227  1.1554   129.1    42.3    21.1
2024 04 11    16 21 37.8 +15 27 26   0.2162  1.1501   128.8    42.8    21.1
2024 04 12    16 22 23.6 +17 30 57   0.2099  1.1446   128.4    43.3    21.0
...
2024 04 18    16 26 43.1 +32 17 34   0.1795  1.1098   122.1    50.1    20.8
...
2024 04 26    16 33 12.1 +57 13 04   0.1636  1.0570   103.7    67.7    21.0
...
2024 05 11    03 51 39.5 +81 44 03   0.2100  0.9371    64.0   104.4    22.7

A. U. Tomatic                (C) Copyright 2024 MPC           M.P.E.C. 2024-G155





More information about the Iaude mailing list